Overview Statistics Trail Chart Weather Telemetry Raw packets
 

This is the latest recevied weather packets stored in our database for station/object vk4zu-13. If no packets are shown the sender has not sent any weather packets the latest 10 day(s).

<< 1 2 3 4 >>
Time Temp. Humidity Pressure Rain* Wind** Luminosity Snow
1788604498 19.44° C 78% 1017.4 hPa 0 mm - 0 W/m² -
1788603604 19.44° C 77% 1017.1 hPa 0 mm - 0 W/m² -
1788602709 20° C 75% 1017.2 hPa 0 mm - 0 W/m² -
1788601782 20.56° C 73% 1017.2 hPa 0 mm - 0 W/m² -
1788600940 21.11° C 73% 1017.1 hPa 0 mm - 0 W/m² -
1788599980 21.67° C 70% 1017.1 hPa 0 mm - 0 W/m² -
1788599075 21.67° C 69% 1017.1 hPa 0 mm - 0 W/m² -
1788598178 22.78° C 65% 1016.8 hPa 0 mm - 0 W/m² -
1788597264 23.33° C 62% 1016.3 hPa 0 mm - 0 W/m² -
1788596361 24.44° C 57% 1016.1 hPa 0 mm - 0 W/m² -
1788595453 25.56° C 55% 1016.1 hPa 0 mm - 0 W/m² -
1788594554 26.67° C 53% 1016.1 hPa 0 mm - 0 W/m² -
1788593654 27.78° C 50% 1015.9 hPa 0 mm - 0 W/m² -
1788592765 28.33° C 48% 1015.9 hPa 0 mm - 12 W/m² -
1788591848 28.89° C 47% 1015.7 hPa 0 mm - 26 W/m² -
1788590997 28.89° C 46% 1015.8 hPa 0 mm - 33 W/m² -
1788590045 29.44° C 45% 1015.7 hPa 0 mm - 192 W/m² -
1788589135 30° C 43% 1015.6 hPa 0 mm - 248 W/m² -
1788588237 30.56° C 44% 1015.6 hPa 0 mm - 304 W/m² -
1788587345 30.56° C 43% 1015.7 hPa 0 mm - 360 W/m² -
1788586434 31.11° C 42% 1015.6 hPa 0 mm - 411 W/m² -
1788585534 31.11° C 42% 1015.8 hPa 0 mm - 457 W/m² -
1788584629 31.11° C 39% 1015.8 hPa 0 mm - 510 W/m² -
1788583789 31.11° C 38% 1015.9 hPa 0 mm - 555 W/m² -
1788582835 31.67° C 34% 1016.1 hPa 0 mm - 596 W/m² -

* Rain latest hour (hover to see other rain measurements)
** Current wind speed in m/s (hover to see current wind gust speed)